Lapse_Rate
8.1 8.1 7.7 7.3 6.8 6.4 8.0 8.0 8.0 7.9 7.5 7.1 6.6 6.6 6.1 5.9 5.7 5.7 5.3 5.3 5.4 5.4 5.3 5.1 6.0 5.4 5.5 5.5 5.5 5.4 5.7 5.8 5.7 5.4 5.5 5.5 5.4 5.3 5.5 5.6 5.6 5.7 5.8
7.8 8.0 7.8 7.4 6.9 6.3 7.8 8.2 8.2 8.0 7.6 7.6 7.0 6.7 6.3 5.9 5.9 5.8 5.1 5.6 5.3 5.2 5.4 5.4 6.4 5.9 5.4 5.4 5.7 5.6 5.9 5.7 5.5 5.5 5.3 5.5 5.6 5.4 5.3 5.5 5.6 5.8 5.8
7.5 7.9 7.9 7.5 7.1 6.3 6.4 8.4 8.3 7.9 8.0 7.8 7.3 6.6 5.8 5.6 5.6 5.6 5.5 5.4 5.6 5.7 5.7 5.9 5.9 5.7 5.6 5.7 5.9 5.8 5.9 5.6 5.2 5.3 5.3 5.4 5.5 5.3 5.2 5.4 5.6 5.7 5.8
7.2 7.5 7.8 7.8 7.3 6.6 6.1 7.6 8.4 8.0 7.8 7.6 7.4 7.0 6.3 6.3 6.1 5.7 5.9 6.1 6.2 6.1 6.1 6.1 5.6 5.7 5.7 6.1 6.0 5.9 5.8 5.7 5.5 5.3 5.4 5.4 5.5 5.2 5.3 5.4 5.5 5.6 5.7
7.3 7.6 7.7 7.8 7.8 7.1 6.3 6.5 8.3 8.2 8.0 7.8 7.3 7.1 6.9 6.5 6.3 6.3 5.9 6.1 6.1 5.8 6.1 6.1 5.7 5.9 5.8 6.2 6.0 6.0 5.9 5.8 5.7 5.6 5.3 5.3 5.1 5.2 5.3 4.8 5.1 5.4 5.5
8.4 7.7 7.8 8.0 8.1 7.6 6.7 6.9 7.7 8.1 7.9 7.9 7.4 7.3 7.4 6.8 6.4 6.1 6.1 6.1 6.0 6.1 6.1 6.2 6.0 6.2 5.9 6.2 6.0 5.9 5.8 5.9 5.7 5.5 5.4 5.4 5.2 5.0 5.1 5.1 5.3 5.5 5.4
7.0 7.4 8.1 8.5 8.3 8.1 7.1 7.2 8.1 7.9 8.1 8.0 7.5 7.4 7.1 6.8 6.5 6.5 6.3 6.3 6.2 6.3 6.5 6.5 6.4 6.5 6.2 6.1 6.1 5.8 5.8 5.9 5.8 5.8 5.6 5.4 5.4 5.2 5.1 5.2 5.2 5.2 4.8
6.0 6.2 6.7 7.4 7.9 8.9 7.3 7.1 8.1 7.9 7.9 8.0 8.1 7.5 7.5 6.7 6.7 6.6 6.4 6.2 6.4 6.6 6.9 6.7 6.7 6.6 6.4 6.1 6.2 6.1 5.9 5.8 5.7 5.7 5.6 5.6 5.0 5.2 5.2 5.0 5.1 5.1 4.8
5.9 6.1 6.4 7.0 7.2 7.3 7.3 7.1 7.9 8.0 7.6 8.1 7.9 7.6 7.4 6.9 6.7 7.0 6.6 6.3 6.3 6.5 6.4 6.7 6.8 6.6 6.5 6.4 6.4 6.1 6.1 5.9 5.6 5.5 5.5 5.4 5.4 5.4 5.5 5.2 5.3 5.2 4.9
6.5 6.0 6.1 6.9 7.5 7.2 6.7 6.9 7.8 7.9 7.7 7.7 7.8 7.5 7.4 7.0 6.7 6.9 7.1 6.6 6.3 6.2 6.3 6.4 6.5 6.6 6.6 6.6 6.3 6.1 6.0 5.8 5.7 5.5 5.5 5.5 5.3 5.4 5.6 5.5 5.4 5.2 5.2
5.6 5.7 5.9 6.8 7.4 7.5 6.9 7.1 7.4 7.8 7.7 7.7 7.7 7.5 7.4 6.9 6.9 6.9 7.3 6.9 6.5 6.4 6.3 6.4 6.4 6.5 6.4 6.3 6.1 6.0 5.8 5.7 5.6 5.5 5.3 5.3 5.2 5.1 5.4 5.5 5.3 5.5 5.4
6.2 6.0 5.8 6.5 7.2 7.3 7.2 7.3 7.1 7.4 6.6 7.9 8.0 7.7 7.8 7.3 6.9 7.2 7.4 6.9 6.7 6.5 6.4 6.5 6.4 6.2 6.2 6.1 6.0 5.9 5.8 5.8 5.8 5.7 5.4 5.3 5.1 5.1 5.1 5.4 5.4 5.6 5.7
6.0 6.1 6.0 6.2 6.6 7.2 7.1 7.0 7.3 7.4 6.5 7.9 8.0 7.8 7.7 7.6 7.3 7.2 7.4 7.3 7.0 6.8 6.7 6.6 6.6 6.4 6.2 6.1 6.0 5.9 5.8 5.7 5.7 5.5 5.3 5.4 5.2 5.3 5.5 5.6 5.5 5.7 5.9
4.6 5.0 6.2 6.5 6.2 6.3 7.1 7.1 6.8 7.3 7.1 6.8 7.7 7.8 7.9 7.7 7.5 7.5 7.1 7.1 7.2 6.9 6.9 6.7 6.8 6.7 6.5 6.2 6.1 6.0 5.8 5.7 5.6 5.5 5.4 5.4 5.3 5.6 5.6 5.8 5.9 5.8 5.9
3.8 4.1 6.5 6.5 6.7 6.6 6.7 7.2 6.9 7.7 7.3 6.5 7.3 7.8 7.9 7.6 7.5 7.5 7.4 7.0 7.2 6.9 6.8 6.8 6.7 6.5 6.4 6.3 6.1 6.1 6.0 5.9 5.9 5.6 5.2 5.5 5.6 5.8 5.7 5.6 5.9 6.0 5.9
4.0 3.5 5.2 6.4 6.6 6.8 7.2 6.7 7.4 7.2 6.8 7.6 7.1 7.3 7.7 7.4 7.5 7.7 7.6 7.2 7.1 6.8 6.5 6.7 6.5 6.4 6.3 6.2 6.2 6.4 6.2 6.1 6.0 5.9 5.7 5.4 5.5 5.7 5.7 5.8 5.8 5.7 5.8
3.6 3.8 3.6 5.4 6.1 6.7 6.7 7.1 7.2 7.2 6.9 7.2 8.0 8.0 6.7 7.0 7.5 7.7 7.9 7.8 7.4 7.6 7.4 6.6 6.4 6.2 6.1 6.3 6.5 6.4 6.2 6.0 5.9 6.1 6.2 5.5 5.8 5.7 5.6 5.7 5.6 5.7 6.0
3.1 3.5 3.5 3.5 4.4 5.2 5.7 6.7 7.3 7.2 7.3 7.1 6.9 6.6 6.7 6.9 7.3 7.9 7.9 7.8 7.8 7.8 7.5 7.2 5.8 6.0 6.0 6.1 6.2 6.2 6.0 6.1 6.0 5.9 5.7 5.5 5.7 5.6 5.5 5.5 5.4 5.5 5.6
3.3 2.9 2.7 3.7 3.3 3.9 5.2 5.8 6.5 7.2 7.3 6.7 7.5 7.5 7.1 7.0 7.0 7.5 7.9 8.0 7.8 7.6 7.3 7.1 6.7 6.3 5.4 6.1 6.1 5.8 5.8 6.3 6.1 5.8 5.3 5.5 5.3 5.4 5.2 5.5 5.2 5.4 4.8
4.5 3.2 3.0 3.4 3.6 3.0 3.5 5.1 6.0 6.5 7.0 6.9 6.7 7.0 7.0 7.1 7.0 7.6 7.8 8.1 7.9 7.8 7.6 7.0 6.8 6.5 6.4 5.6 5.5 5.5 5.4 5.8 5.4 5.0 5.0 4.9 5.4 5.4 5.3 5.2 5.1 4.8 4.8
4.5 3.9 2.8 2.7 2.3 2.4 2.7 2.4 4.4 6.1 6.1 6.3 6.6 6.7 6.8 7.0 7.0 7.0 7.0 7.2 7.4 7.5 7.5 7.1 6.4 6.2 6.1 5.8 6.1 5.7 5.4 5.3 5.5 5.4 5.3 5.4 5.5 5.6 5.2 5.2 5.0 4.9 4.7
4.4 4.8 3.9 2.6 2.6 2.2 2.1 2.7 2.8 3.6 5.2 5.3 5.7 6.5 6.5 6.3 6.9 6.7 6.9 6.8 7.0 6.9 6.9 6.8 6.6 6.5 6.1 6.0 6.1 5.6 5.1 5.6 6.1 6.0 5.9 5.8 6.0 5.8 5.3 5.1 4.7 5.0 5.1
4.6 4.5 4.4 4.1 2.7 2.1 2.0 2.2 1.8 3.0 2.6 3.5 5.2 5.2 6.2 6.1 6.7 6.6 6.8 6.6 7.1 7.2 7.2 7.0 6.9 6.7 6.5 6.3 5.9 5.8 5.7 5.8 6.0 5.9 5.6 6.0 6.1 5.9 5.6 5.2 5.0 5.1 4.9
4.3 4.5 4.4 4.5 3.9 3.3 2.7 2.6 2.3 2.2 2.0 2.8 2.7 3.4 4.3 4.8 6.0 6.3 6.7 6.7 6.8 6.9 6.9 6.8 6.7 6.5 6.3 6.1 6.1 5.6 5.9 6.0 5.9 5.9 5.7 5.9 6.5 5.9 5.6 5.5 5.3 5.1 5.3
4.1 4.6 4.3 3.9 3.9 3.8 2.8 3.0 2.8 2.4 2.9 2.8 2.6 2.6 3.1 3.2 4.5 5.5 5.8 6.7 6.5 6.6 6.3 6.5 6.0 6.2 6.2 6.1 6.1 6.1 6.4 5.8 5.9 6.0 6.4 6.2 5.9 5.9 5.7 5.6 5.6 5.4 5.5
4.3 4.1 4.1 3.7 4.0 3.3 3.3 3.8 2.5 2.6 2.6 2.8 2.6 2.5 3.1 1.5 2.8 3.4 4.4 4.8 5.4 5.7 5.7 5.8 5.8 5.9 5.9 5.7 6.0 5.8 6.1 5.8 6.3 6.3 6.2 6.0 6.0 6.1 5.9 5.9 5.6 5.8 5.8
Wind_Speed
17 17 16 19 21 21 23 24 21 19 15 11 13 12 13 10 8 8 12 11 18 22 13 10 9 8 10 11 12 11 12 9 10 8 6 4 2 3 4 7 6 7 8
23 19 17 20 21 22 24 24 21 19 16 13 11 11 12 14 12 9 11 20 16 16 14 12 14 15 11 10 14 11 9 9 11 7 6 3 1 3 5 4 5 7 8
23 23 20 18 20 23 23 24 22 21 18 16 12 13 11 13 14 13 13 17 20 21 16 11 12 13 11 10 13 12 15 10 10 11 5 4 5 6 6 9 8 8 6
25 24 23 21 21 21 20 23 21 22 18 19 19 21 14 15 14 15 14 15 19 16 19 15 13 13 10 14 13 12 12 10 12 8 9 3 6 4 5 8 10 8 8
24 25 24 24 21 20 20 17 21 21 21 20 20 16 17 12 12 13 18 15 13 15 17 16 14 14 10 14 14 14 13 10 9 9 8 7 5 4 3 6 6 8 9
17 21 23 23 23 20 18 15 18 20 21 20 22 22 20 16 14 15 15 14 14 14 18 17 14 13 13 13 14 14 15 11 11 9 9 9 8 7 4 4 8 7 9
31 31 26 19 19 21 23 18 20 20 22 23 22 21 20 19 19 17 14 18 14 13 17 18 16 13 14 11 13 14 13 13 10 11 8 9 8 5 6 5 6 3 4
28 29 29 28 25 17 25 25 22 20 22 24 24 19 20 14 13 17 14 13 14 16 18 18 17 17 15 13 14 10 11 13 10 12 11 8 6 7 8 7 6 3 2
29 31 31 27 28 27 23 25 26 23 22 22 21 21 20 20 17 19 17 14 15 14 18 20 18 17 17 16 14 11 13 11 11 12 11 10 7 6 7 7 7 6 5
28 27 27 29 27 28 21 25 23 24 20 21 20 19 18 19 18 16 19 19 16 17 18 19 19 18 17 17 16 13 13 13 10 9 12 11 9 8 7 6 5 5 4
22 22 22 24 25 25 23 20 21 21 20 21 21 20 18 18 17 15 18 17 17 18 18 19 19 18 18 17 16 15 14 15 13 12 13 14 13 8 8 7 6 6 6
22 20 20 20 21 22 21 16 20 21 21 21 20 19 19 18 17 17 17 17 17 18 18 19 19 19 19 18 17 17 15 16 15 14 13 13 9 10 8 8 10 8 5
23 20 19 19 19 20 20 19 14 20 20 19 16 15 16 18 20 19 18 18 17 17 19 18 19 18 18 19 18 18 17 14 14 14 14 13 11 11 10 10 9 8 6
22 19 19 21 20 19 18 19 18 17 16 18 15 15 17 17 17 15 17 16 17 17 17 17 17 17 17 17 18 17 16 15 13 14 13 14 14 14 13 11 11 9 9
25 23 23 23 21 23 22 20 18 17 9 16 17 15 16 15 15 15 14 14 16 15 16 16 15 15 15 13 17 16 16 15 15 13 13 13 14 14 14 10 12 12 9
24 27 25 25 27 26 23 22 21 18 15 11 11 17 15 15 16 15 17 15 15 15 16 15 15 16 11 12 13 14 13 13 11 10 10 8 7 7 10 12 11 14 14
25 24 25 25 21 25 22 22 21 17 18 16 15 6 12 16 17 16 16 16 16 15 14 12 13 14 12 10 10 12 11 11 11 11 10 9 6 10 10 7 9 8 8
25 23 19 21 24 22 22 20 21 21 20 18 17 15 12 11 14 14 15 15 14 13 12 12 13 10 6 11 12 12 9 7 8 10 10 10 10 12 11 10 8 8 4
21 19 20 22 19 21 23 21 17 22 21 22 19 16 14 11 2 11 13 12 13 12 13 11 12 13 10 13 14 12 10 5 4 4 6 10 10 12 15 14 12 12 7
19 21 19 21 22 20 19 23 22 19 21 22 20 19 15 15 12 7 4 2 5 6 6 7 9 10 8 13 15 11 4 7 5 3 3 2 8 15 16 13 13 10 7
21 18 19 17 15 15 15 18 21 23 17 15 18 20 20 16 14 11 10 7 5 8 7 9 7 8 8 6 8 9 7 7 5 5 3 3 15 15 13 11 6 5 10
21 20 15 18 21 22 18 18 18 16 21 17 14 18 18 15 14 16 12 12 9 8 7 8 6 4 4 6 9 13 8 10 7 7 5 4 14 15 14 10 11 13 7
15 16 18 18 17 18 20 14 11 16 14 17 18 13 15 14 15 17 15 11 10 7 6 5 5 3 4 4 9 8 11 10 5 6 8 13 12 11 9 10 12 8 5
17 16 16 16 16 17 16 20 20 18 14 12 13 13 12 10 12 10 11 12 10 8 7 5 6 4 5 3 3 4 5 9 8 11 9 7 9 8 7 5 3 3 3
15 16 15 14 14 16 15 15 17 17 17 16 12 13 10 13 6 9 6 8 8 9 6 6 5 4 4 3 5 6 4 5 6 9 5 6 5 5 5 4 4 3 3
16 14 17 15 14 14 13 13 15 17 15 14 12 7 10 4 6 6 6 10 10 15 17 17 10 5 10 10 12 10 13 12 7 4 5 5 5 6 6 4 3 2 4
Wind_Direction
264 254 221 212 201 196 186 187 181 191 187 187 179 173 172 168 156 156 169 176 194 178 190 176 154 189 180 170 135 145 152 143 124 114 104 71 97 204 166 190 185 182 181
260 255 235 208 205 199 189 189 181 190 193 179 191 191 180 175 168 166 175 188 187 186 192 182 169 201 175 172 146 148 150 147 164 158 138 144 185 239 227 205 222 197 193
261 256 244 216 210 201 193 194 179 187 188 183 177 193 198 180 168 179 178 183 196 184 192 188 179 192 175 165 155 170 166 166 187 174 162 161 208 157 191 212 226 188 214
254 255 258 235 207 204 201 196 181 184 186 186 183 196 200 189 183 178 180 182 185 183 188 185 190 184 192 156 169 178 181 176 186 195 234 293 130 194 156 198 212 208 212
246 251 245 247 229 195 200 193 182 180 186 191 197 195 201 194 186 179 179 180 187 185 192 184 195 181 199 162 173 189 199 189 186 201 200 202 209 166 167 159 189 204 209
281 249 254 256 237 182 185 182 190 180 187 198 205 199 197 189 185 190 176 183 183 185 191 189 192 187 198 179 179 195 197 192 200 196 203 201 205 198 177 155 176 195 198
345 348 333 259 247 189 184 177 194 192 186 192 208 204 197 193 190 185 187 180 182 187 187 189 187 191 195 193 185 193 199 205 206 204 213 206 210 236 169 160 168 188 201
344 335 331 327 317 222 186 187 188 198 189 194 201 204 200 193 199 187 187 187 186 189 185 189 185 190 190 197 190 196 202 207 215 214 217 212 218 176 192 191 166 169 192
341 334 328 323 316 310 185 184 189 195 201 197 196 201 202 196 199 184 186 189 194 188 189 186 186 190 190 197 193 200 198 208 208 217 213 214 221 207 192 211 203 160 187
341 336 329 323 315 305 288 176 188 193 197 207 196 195 207 202 201 186 188 189 190 193 186 188 190 189 195 194 199 198 204 204 207 209 211 211 220 209 190 197 212 190 167
335 331 323 317 318 314 309 183 184 194 192 199 202 190 197 211 206 200 190 190 190 193 185 187 192 192 194 196 199 206 204 208 208 209 211 209 212 209 189 187 204 200 176
334 329 325 325 328 335 321 278 184 190 196 203 200 193 188 198 207 206 193 197 192 191 192 190 190 197 196 198 201 204 208 209 207 209 212 215 204 208 204 186 210 199 190
336 334 333 346 341 346 338 326 253 193 199 201 191 181 187 192 204 202 196 189 196 194 198 190 196 197 201 200 203 206 209 210 211 210 209 211 204 200 205 193 206 203 177
342 332 343 359 359 357 354 352 343 198 195 203 179 182 189 198 202 205 197 195 193 197 197 201 196 199 204 205 205 205 210 213 212 211 209 205 203 204 204 198 206 201 199
344 338 2 2 358 4 3 3 359 359 250 202 179 182 187 189 198 197 196 199 190 200 197 196 200 203 206 206 207 209 207 213 213 208 208 214 210 208 201 194 196 192 192
347 351 358 0 7 8 3 4 7 2 2 233 192 189 184 192 191 193 191 196 191 188 195 198 202 206 205 196 191 202 205 206 209 205 209 214 206 201 189 190 201 194 185
347 357 356 360 1 3 5 10 8 8 20 23 15 351 204 195 188 190 188 193 194 189 185 185 200 209 200 160 168 180 195 194 202 210 213 206 199 190 186 160 163 126 71
351 359 352 359 1 357 356 13 14 16 20 27 21 10 347 192 178 183 184 188 187 184 189 180 179 200 202 181 177 179 195 196 209 208 210 192 194 195 174 162 158 158 129
349 348 2 5 357 1 5 3 8 23 16 25 19 7 4 16 15 181 183 185 190 191 195 192 194 176 191 181 185 179 189 171 183 200 175 187 190 179 176 171 172 167 153
357 356 2 1 5 1 359 8 9 14 25 17 19 14 11 19 21 11 56 111 170 166 155 157 174 183 146 177 168 175 155 128 156 125 98 179 181 168 172 174 162 150 152
351 4 5 359 357 357 14 15 7 16 13 20 22 19 19 17 17 24 28 37 92 113 109 108 109 111 142 152 140 171 165 158 134 142 157 153 135 133 118 114 112 120 133
348 353 355 5 353 1 11 16 16 13 4 14 21 28 18 18 21 28 29 35 40 67 83 103 88 90 93 126 149 157 162 132 152 168 164 139 147 150 127 119 130 145 148
335 346 349 353 2 1 350 23 11 8 31 2 20 23 32 18 21 32 25 37 34 34 43 57 80 76 98 113 116 123 129 141 131 137 127 133 128 117 104 113 140 149 154
330 345 336 342 349 350 360 359 8 4 9 31 8 23 28 31 33 33 29 37 24 33 36 33 50 51 70 73 93 99 99 90 94 111 123 116 104 103 103 92 115 133 141
327 327 314 328 337 343 353 357 355 355 6 12 32 1 43 359 48 57 19 37 36 29 22 41 50 41 69 49 77 96 102 112 118 117 112 115 116 114 116 120 140 126 116
316 313 316 319 326 325 335 345 357 358 358 354 358 16 7 72 16 27 87 38 55 46 33 29 35 58 60 72 76 86 98 108 116 95 127 122 128 131 133 131 139 118 141